Meteo Giornale » Osservazioni meteo Italia » Rimini

ore: 14:15 - Osservazioni Meteo Rimini
Lat. 44° 2' N Lon. 12° 37' E Alt. 12 metri s.l.m.

sereno Europe/Rome

22 °C

Sereno

Temp. 24 Ore

12 °C

22 °C

Est/Nord-Est

11.1 Km/h

Dew point 14 °C

Umidità 60 %

Visibilità  10 Km

Il sole sorge alle ore 05:31

Il sole tramonta alle ore 20:42

Data e Ora Cielo e Fenomeni T °C DP °C Um. % Pres. hPa Vis. km Vento km/h
Oggi h: 14:15 sereno Sereno 22 14 60 1019 10 E/NE 11.1
Oggi h: 13:45 sereno Sereno 22 14 60 1019 10 E/NE 11.1
Oggi h: 13:15 sereno Sereno 22 14 60 1019 10 NE 11.1
Oggi h: 12:45 sereno Sereno 22 15 64 1020 10 NE 9.3
Oggi h: 12:15 sereno Sereno 21 16 73 1020 10 NE 13
Oggi h: 11:45 sereno Sereno 21 16 73 1020 10 NE 11.1
Oggi h: 11:15 sereno Sereno 21 15 68 1019 10 NE 7.4
Oggi h: 10:45 sereno Sereno 21 16 73 1019 10 NE 7.4
Oggi h: 10:15 sereno Sereno 21 15 68 1019 10 N 5.5
Oggi h: 09:45 sereno Sereno 21 15 68 1019 10 N 5.5
Oggi h: 09:15 sereno Sereno 20 14 68 1019 10 N 3.7
Oggi h: 08:45 sereno Sereno 19 13 68 1019 10 N 0
Oggi h: 08:15 sereno Sereno 17 12 72 1019 10 N 0
Oggi h: 07:45 sereno Sereno 15 10 72 1019 10 N 0
Oggi h: 07:15 sereno Sereno 14 10 76 1019 10 N 0
Oggi h: 06:45 sereno Sereno 12 10 87 1018 10 N 1.8
Oggi h: 06:15 sereno Sereno 12 11 93 1018 10 N 1.8
Oggi h: 05:45 sereno Sereno 13 11 87 1017 10 N 5.5
Oggi h: 05:15 sereno Sereno 13 11 87 1018 10 N 3.7
Oggi h: 04:45 sereno Sereno 13 11 87 1018 10 N 3.7
Oggi h: 04:15 sereno Sereno 13 11 87 1018 10 N 3.7
Oggi h: 03:45 sereno Sereno 13 11 87 1018 10 N 1.8
Oggi h: 03:15 sereno Sereno 13 12 93 1018 10 N 1.8
Oggi h: 02:45 sereno Sereno 13 12 93 1018 10 N 5.5
Oggi h: 02:15 sereno Sereno 13 12 93 1018 10 S 7.4
Oggi h: 01:45 sereno Sereno 13 12 93 1018 10 S 7.4
Oggi h: 01:15 sereno Sereno 14 13 93 1019 10 N 3.7
Oggi h: 00:45 sereno Sereno 15 12 82 1018 10 N 1.8
Oggi h: 00:15 sereno Sereno 15 13 87 1019 10 N 1.8
Ieri h: 23:45 sereno Sereno 15 13 87 1018 10 N 5.5
Ieri h: 23:15 sereno Sereno 16 14 87 1018 10 N 0
Ieri h: 22:45 sereno Sereno 17 13 77 1018 10 N 5.5
Ieri h: 22:15 sereno Sereno 18 12 67 1018 10 N 1.8
Ieri h: 21:45 sereno Sereno 19 13 68 1017 10 N 0
Ieri h: 21:15 sereno Sereno 19 13 68 1017 10 N 1.8
Ieri h: 20:45 sereno Sereno 20 12 59 1017 10 N 1.8
Ieri h: 20:15 sereno Sereno 21 12 56 1017 10 N 5.5
Ieri h: 19:45 sereno Sereno 21 11 52 1017 10 E/SE 11.1
Ieri h: 19:15 sereno Sereno 21 11 52 1017 10 E 13
Ieri h: 18:45 sereno Sereno 21 11 52 1017 10 E 14.8
Ieri h: 18:15 sereno Sereno 21 11 52 1017 10 E 18.5
Ieri h: 17:45 sereno Sereno 21 11 52 1017 10 E 20.3
Ieri h: 17:15 sereno Sereno 21 12 56 1017 10 E 20.3
Ieri h: 16:45 sereno Sereno 21 13 60 1018 10 E 22.2
Ieri h: 16:15 sereno Sereno 21 12 56 1018 10 E 24
Ieri h: 15:45 sereno Sereno 21 15 68 1018 10 E 20.3
Ieri h: 15:15 sereno Sereno 21 15 68 1018 10 E/NE 22.2
Ieri h: 14:45 sereno Sereno 21 14 64 1018 10 E 22.2